Location: Beaver Brook Station
(42.3793°N, 71.2203°W)
Time: 05:13:28
(UTC+00:00)

X-37B - Pass Details

Date: 29 January 2021
Orbit: 383 x 391 km, 45.0° (Epoch: 27 February)

Event Time Altitude Azimuth Distance (km) Brightness Sun altitude
Rises 23:56:26 0° 287° (WNW) 2,275 5.7 -22.6°
Reaches altitude 10° 23:58:32 10° 282° (WNW) 1,419 4.4 -23.0°
Enters shadow 00:00:49 38° 256° (WSW) 612 2.0 -23.4°
